Location: Qu�bec
(46.8000°N, 71.2500°W)
Time: 20:05:52
(UTC-05:00)

ISS - Visible Passes

Search period start: 19 January 2018 00:00
Search period end: 29 January 2018 00:00
Orbit: 402 x 407 km, 51.6° (Epoch: 20 January)

Date Brightness Start Highest point End Pass type
(mag) Time Alt. Az. Time Alt. Az. Time Alt. Az.
24 Jan -0.7 19:13:54 10° SW 19:13:59 10° SW 19:13:59 10° SW visible
25 Jan -2.1 18:22:06 10° SSW 18:24:08 22° SSE 18:24:08 22° SSE visible
26 Jan -1.6 17:30:52 10° SSE 17:32:35 14° SE 17:34:12 10° ESE visible
26 Jan -1.7 19:05:20 10° WSW 19:06:52 25° SW 19:06:52 25° SW visible
27 Jan -3.4 18:13:06 10° SW 18:16:15 46° SE 18:16:50 40° ESE visible
28 Jan -2.5 17:21:08 10° SSW 17:23:58 27° SE 17:26:44 10° E visible
28 Jan -2.6 18:57:02 10° WSW 18:59:23 41° W 18:59:23 41° W visible
